Weather History for Valentine, NE

Change the Weather History Date:

Friday, January 24, 2014

  Actual Average Record
Temperature  
Mean Temperature 37 °F 24 °F  
Max Temperature 51 °F 37 °F 68 °F (1981)
Min Temperature 22 °F 11 °F -38 °F (1894)
Degree Days  
Heating Degree Days 28 41  
Month to date heating degree days 921 997  
Since 1 July heating degree days 3913 3892  
Cooling Degree Days 0 0  
Month to date cooling degree days 0 0  
Year to date cooling degree days 0 0  
Moisture  
Dew Point 24 °F    
Average Humidity 49    
Maximum Humidity 62    
Minimum Humidity 36    
Precipitation  
Precipitation T in 0.01 in 0.27 in (1921)
Month to date precipitation 0.03 0.20  
Year to date precipitation 0.03 0.20  
Snow  
Snow 0.00 in 0.10 in 4.30 in (1921)
Month to date snowfall 0.5 2.9  
Since 1 July snowfall 19.5 15.6  
Snow Depth 0.00 in    
Sea Level Pressure  
Sea Level Pressure 30.00 in    
Wind  
Wind Speed 18 mph (WNW)    
Max Wind Speed 35 mph    
Max Gust Speed 44 mph    
Visibility 10 miles    
Events Rain    
T = Trace of Precipitation, MM = Missing Value Source: NWS Daily Summary

Daily Weather History Graph

Daily Weather History Graph

Search for Another Location

Airport:

Trip Planner

Search our weather history database for the weather conditions in past years. The results will help you decide how hot, cold, wet, or windy it might be!

Date:

Astronomy

Jan. 24, 2014 Rise Set
Actual Time 8:04 AM CST 5:44 PM CST
Civil Twilight 7:33 AM CST 6:15 PM CST
Nautical Twilight 6:59 AM CST 6:49 PM CST
Astronomical Twilight 6:25 AM CST 7:23 PM CST
Moon 1:31 AM CST (1/24) 12:06 PM CST (1/24)
Length of Visible Light 10h 41m
Length of Day
9h 40m
Last Quarter, 44% of the Moon is Illuminated
Jan 24
Last Quarter
Jan 30
New
Feb 6
First Quarter
Feb 14
Full
Feb 22
Last Quarter

Hourly Weather History & Observations

Time (CST) Temp. Windchill Dew Point Humidity Pressure Visibility Wind Dir Wind Speed Gust Speed Precip Events Conditions
12:52 AM 25.0 °F 13.1 °F 8.1 °F 49% 30.22 in 10.0 mi WSW 13.8 mph - N/A   Clear
1:52 AM 27.0 °F 16.7 °F 9.0 °F 47% 30.18 in 10.0 mi West 11.5 mph - N/A   Clear
2:52 AM 28.0 °F 18.1 °F 8.1 °F 43% 30.15 in 10.0 mi West 11.5 mph - N/A   Clear
3:52 AM 30.0 °F 18.3 °F 8.1 °F 40% 30.12 in 10.0 mi West 17.3 mph - N/A   Clear
4:52 AM 30.0 °F 20.0 °F 8.1 °F 40% 30.11 in 10.0 mi West 12.7 mph - N/A   Partly Cloudy
5:52 AM 32.0 °F 23.6 °F 9.0 °F 38% 30.09 in 10.0 mi West 10.4 mph - N/A   Overcast
6:52 AM 39.0 °F 30.3 °F 15.1 °F 38% 30.08 in 10.0 mi WNW 16.1 mph 25.3 mph N/A   Overcast
7:52 AM 39.0 °F 29.9 °F 18.0 °F 43% 30.07 in 10.0 mi West 17.3 mph - N/A   Overcast
8:52 AM 39.9 °F 30.2 °F 21.0 °F 47% 30.06 in 10.0 mi WNW 20.7 mph 33.4 mph N/A   Overcast
9:52 AM 42.1 °F 32.6 °F 21.9 °F 45% 30.04 in 10.0 mi WNW 23.0 mph 29.9 mph N/A   Mostly Cloudy
10:52 AM 44.1 °F 35.9 °F 24.1 °F 45% 30.04 in 10.0 mi WNW 19.6 mph 27.6 mph N/A   Scattered Clouds
11:52 AM 46.9 °F - 26.1 °F 44% 30.02 in 10.0 mi WNW 15.0 mph 24.2 mph N/A   Mostly Cloudy
12:52 PM 50.0 °F - 28.9 °F 44% 29.96 in 10.0 mi WNW 21.9 mph 31.1 mph N/A   Overcast
1:52 PM 50.0 °F - 33.1 °F 52% 29.94 in 10.0 mi NW 25.3 mph 42.6 mph N/A   Overcast
2:52 PM 46.9 °F - 37.0 °F 68% 29.91 in 10.0 mi WNW 20.7 mph 28.8 mph 0.00 in Rain Light Rain
3:52 PM 48.9 °F - 37.0 °F 64% 29.88 in 10.0 mi West 18.4 mph 27.6 mph 0.00 in Rain Light Rain
4:52 PM 48.9 °F - 36.0 °F 61% 29.86 in 10.0 mi West 18.4 mph 25.3 mph 0.00 in   Mostly Cloudy
5:52 PM 48.9 °F - 33.1 °F 54% 29.87 in 10.0 mi WNW 13.8 mph 29.9 mph N/A   Mostly Cloudy
6:52 PM 48.9 °F - 32.0 °F 52% 29.87 in 10.0 mi NW 21.9 mph 34.5 mph N/A   Clear
7:52 PM 48.0 °F - 30.9 °F 52% 29.89 in 10.0 mi NW 20.7 mph 32.2 mph N/A   Partly Cloudy
8:52 PM 46.9 °F - 32.0 °F 56% 29.91 in 10.0 mi NW 19.6 mph 33.4 mph N/A   Overcast
9:52 PM 46.0 °F 39.0 °F 32.0 °F 58% 29.92 in 10.0 mi NW 17.3 mph 31.1 mph N/A   Overcast
10:52 PM 45.0 °F 36.2 °F 32.0 °F 60% 29.94 in 10.0 mi NNW 24.2 mph 35.7 mph N/A   Overcast
11:52 PM 41.0 °F 32.2 °F 35.1 °F 79% 29.97 in 10.0 mi NNW 18.4 mph 25.3 mph N/A   Overcast